QPF
0.08 0.10 0.10 0.08 0.07 0.06 0.04 0.04 0.03 0.02 0.01 0.01 0.01 0.01 0.02 0.02 0.02 0.01 0.00 0.00 0.00 0.00 0.00 0.00 0.00 0.00 0.00 0.00 0.00 0.00 0.00 0.00 0.00 0.00 0.00 0.00 0.00 0.00 0.00 0.00 0.00 0.00 0.00
0.08 0.10 0.08 0.07 0.08 0.07 0.05 0.04 0.04 0.03 0.01 0.01 0.01 0.01 0.02 0.02 0.02 0.01 0.01 0.00 0.00 0.00 0.00 0.00 0.00 0.00 0.00 0.00 0.01 0.00 0.00 0.01 0.01 0.00 0.00 0.00 0.00 0.00 0.00 0.00 0.00 0.00 0.00
0.08 0.10 0.08 0.08 0.08 0.07 0.05 0.05 0.03 0.03 0.02 0.02 0.01 0.01 0.01 0.02 0.02 0.02 0.01 0.00 0.00 0.01 0.01 0.01 0.01 0.01 0.01 0.01 0.01 0.01 0.01 0.01 0.01 0.01 0.00 0.00 0.00 0.00 0.00 0.00 0.00 0.00 0.00
0.06 0.07 0.06 0.07 0.07 0.05 0.05 0.03 0.03 0.03 0.03 0.03 0.03 0.02 0.03 0.03 0.02 0.02 0.02 0.02 0.02 0.02 0.01 0.01 0.01 0.00 0.00 0.00 0.00 0.00 0.00 0.00 0.00 0.00 0.00 0.00 0.00 0.00 0.00 0.00 0.00 0.00 0.00
0.04 0.05 0.05 0.06 0.06 0.04 0.03 0.03 0.03 0.04 0.04 0.05 0.05 0.05 0.05 0.06 0.06 0.05 0.04 0.03 0.02 0.02 0.01 0.01 0.01 0.00 0.00 0.00 0.00 0.00 0.00 0.00 0.00 0.00 0.00 0.00 0.00 0.00 0.00 0.00 0.00 0.00 0.00
0.03 0.02 0.02 0.02 0.03 0.02 0.03 0.04 0.05 0.06 0.06 0.08 0.11 0.11 0.09 0.08 0.08 0.06 0.05 0.03 0.03 0.03 0.02 0.01 0.01 0.01 0.01 0.00 0.00 0.01 0.01 0.01 0.01 0.00 0.00 0.00 0.00 0.00 0.00 0.00 0.00 0.00 0.00
0.03 0.03 0.04 0.05 0.04 0.03 0.05 0.06 0.07 0.07 0.07 0.06 0.08 0.09 0.08 0.06 0.06 0.06 0.06 0.05 0.04 0.04 0.03 0.02 0.02 0.01 0.01 0.01 0.01 0.01 0.01 0.01 0.00 0.01 0.00 0.00 0.00 0.00 0.00 0.00 0.00 0.00 0.00
0.05 0.05 0.06 0.07 0.07 0.08 0.09 0.09 0.09 0.10 0.10 0.08 0.07 0.07 0.07 0.07 0.07 0.08 0.08 0.06 0.05 0.04 0.02 0.02 0.01 0.01 0.01 0.01 0.01 0.01 0.01 0.00 0.01 0.01 0.01 0.00 0.00 0.00 0.00 0.01 0.00 0.00 0.00
0.05 0.06 0.07 0.09 0.11 0.12 0.11 0.11 0.14 0.15 0.15 0.14 0.12 0.10 0.09 0.08 0.08 0.08 0.08 0.07 0.06 0.04 0.03 0.03 0.02 0.01 0.02 0.02 0.02 0.01 0.01 0.01 0.01 0.02 0.01 0.01 0.01 0.01 0.01 0.01 0.01 0.01 0.00
0.09 0.10 0.11 0.13 0.16 0.18 0.19 0.19 0.18 0.16 0.14 0.12 0.12 0.11 0.09 0.08 0.07 0.07 0.07 0.07 0.06 0.06 0.05 0.04 0.03 0.03 0.03 0.03 0.02 0.02 0.01 0.01 0.02 0.02 0.01 0.01 0.01 0.01 0.02 0.02 0.01 0.01 0.01
0.13 0.16 0.17 0.18 0.22 0.23 0.22 0.20 0.18 0.16 0.15 0.13 0.12 0.11 0.10 0.09 0.07 0.07 0.06 0.05 0.05 0.05 0.04 0.04 0.04 0.05 0.05 0.04 0.03 0.03 0.02 0.02 0.02 0.02 0.01 0.01 0.01 0.01 0.01 0.01 0.01 0.01 0.01
0.12 0.14 0.15 0.16 0.18 0.21 0.22 0.22 0.21 0.20 0.18 0.16 0.14 0.13 0.12 0.12 0.11 0.10 0.09 0.08 0.08 0.07 0.06 0.07 0.08 0.09 0.07 0.07 0.06 0.05 0.04 0.04 0.03 0.02 0.01 0.01 0.01 0.01 0.01 0.01 0.01 0.01 0.01
0.09 0.09 0.09 0.08 0.09 0.12 0.13 0.12 0.13 0.15 0.19 0.22 0.21 0.19 0.17 0.15 0.15 0.15 0.14 0.13 0.11 0.09 0.09 0.09 0.08 0.07 0.06 0.05 0.04 0.04 0.03 0.03 0.02 0.02 0.01 0.01 0.01 0.01 0.01 0.02 0.02 0.01 0.01
0.06 0.06 0.05 0.04 0.03 0.04 0.05 0.08 0.13 0.17 0.21 0.24 0.24 0.23 0.21 0.20 0.18 0.15 0.13 0.12 0.10 0.08 0.06 0.05 0.05 0.04 0.03 0.03 0.03 0.03 0.02 0.02 0.02 0.02 0.01 0.01 0.01 0.01 0.02 0.02 0.02 0.02 0.03
0.05 0.06 0.05 0.04 0.02 0.02 0.03 0.05 0.09 0.11 0.11 0.12 0.13 0.13 0.13 0.13 0.12 0.10 0.08 0.07 0.06 0.05 0.05 0.04 0.04 0.03 0.03 0.03 0.03 0.03 0.02 0.02 0.02 0.02 0.02 0.01 0.01 0.01 0.01 0.01 0.01 0.02 0.02
0.03 0.04 0.03 0.03 0.03 0.03 0.03 0.03 0.04 0.04 0.04 0.04 0.05 0.06 0.06 0.06 0.06 0.06 0.05 0.05 0.05 0.04 0.04 0.03 0.03 0.04 0.04 0.03 0.03 0.03 0.03 0.03 0.03 0.02 0.01 0.01 0.01 0.01 0.01 0.01 0.01 0.01 0.01
0.02 0.02 0.02 0.02 0.02 0.02 0.02 0.02 0.02 0.02 0.02 0.03 0.04 0.05 0.05 0.06 0.06 0.04 0.04 0.03 0.03 0.03 0.03 0.03 0.03 0.03 0.03 0.03 0.03 0.02 0.02 0.02 0.02 0.02 0.01 0.01 0.01 0.01 0.00 0.00 0.00 0.01 0.01
0.01 0.01 0.01 0.01 0.01 0.01 0.01 0.01 0.02 0.02 0.03 0.03 0.03 0.03 0.03 0.03 0.04 0.03 0.03 0.02 0.02 0.02 0.02 0.02 0.02 0.02 0.02 0.02 0.02 0.02 0.02 0.02 0.02 0.01 0.01 0.01 0.01 0.01 0.01 0.01 0.01 0.01 0.02
0.01 0.01 0.01 0.01 0.01 0.01 0.01 0.02 0.02 0.02 0.02 0.02 0.02 0.01 0.01 0.02 0.02 0.01 0.01 0.01 0.01 0.01 0.01 0.01 0.01 0.01 0.01 0.01 0.01 0.01 0.01 0.01 0.01 0.01 0.01 0.01 0.01 0.01 0.01 0.02 0.02 0.02 0.02
0.00 0.00 0.00 0.00 0.00 0.00 0.01 0.01 0.01 0.01 0.01 0.01 0.01 0.00 0.01 0.01 0.01 0.01 0.01 0.01 0.01 0.02 0.02 0.02 0.02 0.02 0.02 0.01 0.01 0.01 0.01 0.01 0.01 0.01 0.02 0.02 0.02 0.02 0.03 0.03 0.03 0.04 0.05
0.00 0.00 0.00 0.00 0.00 0.00 0.00 0.00 0.00 0.00 0.00 0.00 0.01 0.01 0.01 0.01 0.01 0.02 0.02 0.02 0.01 0.01 0.01 0.01 0.01 0.02 0.02 0.02 0.01 0.01 0.01 0.01 0.01 0.01 0.02 0.02 0.02 0.02 0.03 0.03 0.04 0.04 0.04
0.00 0.00 0.00 0.00 0.00 0.00 0.00 0.00 0.00 0.00 0.00 0.00 0.00 0.00 0.01 0.01 0.01 0.01 0.01 0.01 0.01 0.01 0.01 0.01 0.01 0.02 0.02 0.01 0.01 0.01 0.01 0.01 0.01 0.02 0.02 0.02 0.02 0.02 0.02 0.03 0.03 0.03 0.04
0.00 0.00 0.00 0.00 0.00 0.00 0.00 0.00 0.00 0.00 0.00 0.00 0.00 0.00 0.00 0.00 0.00 0.00 0.00 0.01 0.01 0.01 0.01 0.02 0.01 0.01 0.02 0.01 0.01 0.01 0.01 0.02 0.02 0.02 0.02 0.02 0.03 0.03 0.03 0.04 0.04 0.04 0.05
0.00 0.00 0.00 0.00 0.00 0.00 0.00 0.00 0.00 0.00 0.00 0.00 0.00 0.00 0.00 0.00 0.00 0.01 0.01 0.01 0.01 0.01 0.01 0.01 0.02 0.02 0.01 0.01 0.01 0.01 0.01 0.01 0.02 0.02 0.02 0.02 0.03 0.03 0.04 0.05 0.05 0.06 0.07
0.00 0.00 0.00 0.00 0.00 0.00 0.00 0.00 0.00 0.00 0.00 0.00 0.00 0.00 0.00 0.00 0.00 0.01 0.01 0.01 0.01 0.01 0.01 0.01 0.01 0.00 0.00 0.00 0.00 0.00 0.01 0.01 0.01 0.01 0.02 0.02 0.03 0.04 0.05 0.06 0.06 0.06 0.07
0.00 0.00 0.00 0.00 0.00 0.00 0.00 0.00 0.00 0.00 0.00 0.00 0.00 0.00 0.00 0.00 0.00 0.01 0.01 0.01 0.01 0.01 0.01 0.00 0.00 0.00 0.00 0.00 0.00 0.00 0.01 0.01 0.01 0.02 0.03 0.03 0.03 0.03 0.05 0.05 0.04 0.05 0.07
MSLP
1012.34 1012.99 1013.65 1014.27 1014.79 1015.22 1015.58 1015.88 1016.18 1016.50 1016.87 1017.30 1017.76 1018.22 1018.66 1019.05 1019.36 1019.60 1019.79 1019.94 1020.08 1020.23 1020.41 1020.62 1020.85 1021.08 1021.29 1021.47 1021.60 1021.68 1021.73 1021.73 1021.71 1021.67 1021.60 1021.50 1021.37 1021.20 1020.99 1020.74 1020.47 1020.20 1019.93
1012.47 1013.01 1013.56 1014.09 1014.56 1014.96 1015.31 1015.62 1015.92 1016.25 1016.62 1017.03 1017.46 1017.90 1018.32 1018.69 1019.01 1019.27 1019.48 1019.66 1019.82 1020.00 1020.18 1020.37 1020.57 1020.76 1020.93 1021.07 1021.18 1021.26 1021.32 1021.36 1021.38 1021.39 1021.38 1021.32 1021.23 1021.07 1020.87 1020.61 1020.31 1020.00 1019.70
1012.52 1012.98 1013.46 1013.91 1014.33 1014.70 1015.03 1015.33 1015.64 1015.96 1016.31 1016.69 1017.10 1017.51 1017.89 1018.25 1018.57 1018.84 1019.07 1019.28 1019.48 1019.67 1019.87 1020.06 1020.23 1020.39 1020.53 1020.64 1020.73 1020.80 1020.86 1020.92 1020.98 1021.02 1021.05 1021.04 1020.98 1020.86 1020.67 1020.41 1020.11 1019.78 1019.46
1012.46 1012.87 1013.30 1013.70 1014.07 1014.41 1014.71 1015.00 1015.30 1015.60 1015.94 1016.29 1016.66 1017.04 1017.40 1017.74 1018.04 1018.32 1018.57 1018.81 1019.03 1019.25 1019.45 1019.65 1019.82 1019.96 1020.07 1020.16 1020.23 1020.29 1020.35 1020.41 1020.49 1020.56 1020.62 1020.64 1020.62 1020.53 1020.36 1020.13 1019.84 1019.52 1019.18
1012.23 1012.64 1013.04 1013.41 1013.75 1014.06 1014.34 1014.61 1014.89 1015.18 1015.49 1015.82 1016.16 1016.50 1016.83 1017.15 1017.44 1017.71 1017.97 1018.22 1018.47 1018.70 1018.92 1019.12 1019.29 1019.43 1019.54 1019.61 1019.67 1019.71 1019.76 1019.83 1019.91 1019.99 1020.07 1020.12 1020.13 1020.07 1019.94 1019.74 1019.47 1019.17 1018.84
1011.83 1012.26 1012.66 1013.02 1013.33 1013.62 1013.88 1014.14 1014.40 1014.68 1014.97 1015.28 1015.59 1015.90 1016.21 1016.49 1016.77 1017.03 1017.28 1017.53 1017.78 1018.03 1018.26 1018.47 1018.65 1018.80 1018.91 1018.98 1019.03 1019.07 1019.11 1019.17 1019.24 1019.33 1019.41 1019.48 1019.50 1019.47 1019.38 1019.22 1018.99 1018.71 1018.40
1011.30 1011.75 1012.16 1012.51 1012.82 1013.09 1013.34 1013.58 1013.83 1014.10 1014.38 1014.67 1014.96 1015.25 1015.53 1015.79 1016.03 1016.27 1016.51 1016.75 1016.99 1017.24 1017.48 1017.71 1017.90 1018.06 1018.18 1018.27 1018.32 1018.36 1018.40 1018.45 1018.52 1018.59 1018.67 1018.74 1018.78 1018.77 1018.70 1018.57 1018.38 1018.14 1017.85
1010.69 1011.17 1011.59 1011.94 1012.23 1012.48 1012.72 1012.95 1013.20 1013.46 1013.73 1014.02 1014.30 1014.57 1014.82 1015.05 1015.27 1015.48 1015.69 1015.91 1016.14 1016.39 1016.63 1016.87 1017.08 1017.26 1017.41 1017.51 1017.58 1017.64 1017.68 1017.72 1017.77 1017.84 1017.90 1017.96 1018.00 1018.00 1017.95 1017.84 1017.68 1017.47 1017.21
1010.12 1010.61 1011.01 1011.35 1011.62 1011.86 1012.08 1012.31 1012.54 1012.80 1013.07 1013.35 1013.62 1013.88 1014.11 1014.32 1014.51 1014.69 1014.88 1015.08 1015.29 1015.53 1015.77 1016.02 1016.26 1016.47 1016.64 1016.78 1016.87 1016.94 1016.99 1017.04 1017.08 1017.12 1017.17 1017.21 1017.23 1017.22 1017.18 1017.08 1016.94 1016.75 1016.52
1009.68 1010.15 1010.53 1010.84 1011.09 1011.30 1011.50 1011.71 1011.94 1012.19 1012.46 1012.73 1013.00 1013.24 1013.46 1013.65 1013.81 1013.97 1014.14 1014.31 1014.52 1014.75 1015.00 1015.26 1015.51 1015.75 1015.96 1016.12 1016.25 1016.34 1016.41 1016.45 1016.48 1016.51 1016.53 1016.54 1016.54 1016.51 1016.45 1016.35 1016.21 1016.03 1015.81
1009.46 1009.88 1010.22 1010.49 1010.70 1010.88 1011.06 1011.25 1011.47 1011.70 1011.96 1012.22 1012.47 1012.70 1012.90 1013.08 1013.23 1013.37 1013.52 1013.69 1013.89 1014.12 1014.37 1014.64 1014.92 1015.18 1015.41 1015.61 1015.77 1015.88 1015.96 1016.00 1016.02 1016.03 1016.02 1016.00 1015.96 1015.89 1015.80 1015.68 1015.53 1015.34 1015.12
1009.51 1009.87 1010.15 1010.36 1010.54 1010.68 1010.83 1010.99 1011.17 1011.39 1011.62 1011.86 1012.09 1012.30 1012.49 1012.66 1012.80 1012.94 1013.08 1013.25 1013.45 1013.68 1013.94 1014.22 1014.50 1014.78 1015.03 1015.25 1015.42 1015.55 1015.63 1015.68 1015.69 1015.68 1015.64 1015.58 1015.50 1015.40 1015.27 1015.11 1014.92 1014.71 1014.47
1009.83 1010.11 1010.33 1010.49 1010.62 1010.72 1010.83 1010.96 1011.11 1011.28 1011.48 1011.68 1011.88 1012.07 1012.25 1012.40 1012.54 1012.68 1012.83 1013.00 1013.21 1013.44 1013.70 1013.98 1014.27 1014.54 1014.80 1015.02 1015.19 1015.32 1015.40 1015.44 1015.44 1015.41 1015.35 1015.26 1015.14 1014.99 1014.82 1014.62 1014.39 1014.14 1013.87
1010.36 1010.58 1010.74 1010.85 1010.93 1011.00 1011.07 1011.15 1011.25 1011.38 1011.53 1011.69 1011.85 1012.01 1012.16 1012.30 1012.44 1012.58 1012.74 1012.92 1013.13 1013.36 1013.62 1013.88 1014.15 1014.41 1014.65 1014.85 1015.00 1015.12 1015.19 1015.22 1015.21 1015.17 1015.09 1014.97 1014.83 1014.65 1014.43 1014.19 1013.92 1013.62 1013.31
1011.03 1011.19 1011.30 1011.37 1011.42 1011.44 1011.47 1011.51 1011.57 1011.64 1011.73 1011.83 1011.94 1012.06 1012.18 1012.31 1012.44 1012.59 1012.75 1012.94 1013.14 1013.37 1013.60 1013.84 1014.08 1014.30 1014.49 1014.65 1014.78 1014.86 1014.92 1014.94 1014.92 1014.87 1014.78 1014.66 1014.50 1014.30 1014.06 1013.78 1013.47 1013.13 1012.77
1011.71 1011.82 1011.90 1011.94 1011.96 1011.97 1011.96 1011.96 1011.97 1011.98 1012.01 1012.05 1012.10 1012.17 1012.26 1012.36 1012.48 1012.62 1012.78 1012.96 1013.16 1013.36 1013.56 1013.76 1013.94 1014.10 1014.24 1014.35 1014.43 1014.48 1014.52 1014.53 1014.51 1014.47 1014.39 1014.28 1014.13 1013.92 1013.67 1013.37 1013.03 1012.65 1012.25
1012.32 1012.39 1012.45 1012.47 1012.48 1012.46 1012.43 1012.39 1012.35 1012.31 1012.27 1012.25 1012.25 1012.27 1012.31 1012.38 1012.48 1012.61 1012.76 1012.92 1013.09 1013.26 1013.42 1013.56 1013.68 1013.77 1013.84 1013.89 1013.93 1013.95 1013.97 1013.98 1013.98 1013.96 1013.91 1013.82 1013.69 1013.50 1013.26 1012.95 1012.59 1012.18 1011.74
1012.78 1012.83 1012.86 1012.87 1012.87 1012.84 1012.79 1012.72 1012.63 1012.54 1012.45 1012.37 1012.32 1012.28 1012.29 1012.33 1012.40 1012.50 1012.62 1012.76 1012.89 1013.02 1013.12 1013.20 1013.25 1013.28 1013.29 1013.29 1013.29 1013.29 1013.31 1013.33 1013.35 1013.37 1013.36 1013.32 1013.22 1013.06 1012.82 1012.52 1012.15 1011.72 1011.24
1013.09 1013.11 1013.12 1013.12 1013.10 1013.05 1012.98 1012.89 1012.77 1012.64 1012.51 1012.38 1012.27 1012.20 1012.16 1012.16 1012.20 1012.27 1012.36 1012.46 1012.56 1012.63 1012.68 1012.70 1012.69 1012.66 1012.62 1012.59 1012.56 1012.56 1012.59 1012.64 1012.70 1012.76 1012.80 1012.80 1012.74 1012.61 1012.39 1012.09 1011.71 1011.26 1010.76
1013.28 1013.26 1013.24 1013.22 1013.18 1013.12 1013.03 1012.91 1012.77 1012.61 1012.43 1012.27 1012.12 1012.01 1011.94 1011.90 1011.91 1011.94 1012.00 1012.06 1012.11 1012.13 1012.13 1012.10 1012.05 1011.98 1011.91 1011.86 1011.84 1011.85 1011.90 1011.99 1012.10 1012.20 1012.29 1012.33 1012.31 1012.19 1011.98 1011.68 1011.28 1010.81 1010.27
1013.44 1013.36 1013.30 1013.24 1013.18 1013.09 1012.98 1012.84 1012.67 1012.48 1012.29 1012.09 1011.92 1011.78 1011.67 1011.61 1011.58 1011.58 1011.59 1011.61 1011.61 1011.59 1011.55 1011.49 1011.40 1011.32 1011.24 1011.19 1011.19 1011.23 1011.32 1011.45 1011.60 1011.75 1011.87 1011.94 1011.92 1011.81 1011.59 1011.27 1010.84 1010.33 1009.76
1013.64 1013.50 1013.39 1013.28 1013.17 1013.05 1012.91 1012.75 1012.56 1012.35 1012.13 1011.92 1011.73 1011.56 1011.43 1011.34 1011.28 1011.24 1011.21 1011.19 1011.15 1011.09 1011.02 1010.93 1010.83 1010.74 1010.67 1010.65 1010.67 1010.75 1010.88 1011.05 1011.24 1011.41 1011.55 1011.62 1011.59 1011.45 1011.20 1010.83 1010.35 1009.79 1009.17
1013.98 1013.77 1013.59 1013.42 1013.26 1013.10 1012.92 1012.73 1012.52 1012.29 1012.06 1011.84 1011.63 1011.45 1011.30 1011.18 1011.08 1011.01 1010.94 1010.87 1010.79 1010.70 1010.60 1010.49 1010.39 1010.31 1010.26 1010.26 1010.32 1010.43 1010.59 1010.79 1010.99 1011.16 1011.29 1011.33 1011.26 1011.07 1010.76 1010.32 1009.78 1009.16 1008.49
1014.48 1014.20 1013.95 1013.73 1013.51 1013.30 1013.08 1012.85 1012.62 1012.37 1012.13 1011.90 1011.68 1011.48 1011.31 1011.16 1011.04 1010.92 1010.82 1010.70 1010.59 1010.46 1010.33 1010.21 1010.10 1010.02 1009.99 1010.01 1010.09 1010.23 1010.40 1010.60 1010.79 1010.94 1011.03 1011.01 1010.88 1010.62 1010.23 1009.72 1009.11 1008.42 1007.70
1015.13 1014.80 1014.49 1014.20 1013.93 1013.67 1013.41 1013.15 1012.88 1012.62 1012.37 1012.12 1011.90 1011.68 1011.49 1011.32 1011.16 1011.01 1010.85 1010.70 1010.53 1010.37 1010.21 1010.06 1009.94 1009.86 1009.83 1009.86 1009.94 1010.08 1010.24 1010.42 1010.58 1010.68 1010.70 1010.62 1010.41 1010.06 1009.59 1009.00 1008.32 1007.59 1006.82
1015.90 1015.52 1015.16 1014.82 1014.50 1014.19 1013.89 1013.59 1013.31 1013.03 1012.76 1012.51 1012.27 1012.04 1011.83 1011.63 1011.43 1011.23 1011.03 1010.83 1010.62 1010.41 1010.21 1010.03 1009.88 1009.78 1009.73 1009.74 1009.81 1009.92 1010.05 1010.18 1010.28 1010.32 1010.27 1010.11 1009.81 1009.39 1008.85 1008.20 1007.47 1006.70 1005.92
Thickness
5732 5731 5729 5728 5727 5727 5727 5727 5726 5725 5724 5723 5721 5719 5717 5714 5713 5711 5709 5708 5706 5704 5703 5701 5699 5698 5696 5694 5693 5691 5689 5687 5685 5686 5685 5686 5686 5686 5685 5685 5684 5683 5683
5734 5732 5729 5728 5726 5725 5725 5725 5725 5724 5723 5722 5720 5718 5715 5713 5711 5709 5707 5706 5704 5702 5700 5698 5696 5694 5692 5690 5689 5687 5685 5684 5682 5681 5681 5681 5682 5682 5681 5680 5680 5680 5679
5734 5731 5728 5727 5725 5725 5724 5724 5723 5722 5721 5720 5718 5716 5713 5712 5710 5708 5706 5704 5702 5700 5698 5695 5693 5690 5688 5686 5685 5683 5681 5680 5677 5676 5676 5676 5676 5676 5675 5675 5675 5674 5675
5733 5730 5729 5728 5727 5726 5724 5723 5722 5721 5719 5717 5716 5714 5712 5710 5708 5706 5703 5701 5699 5697 5695 5692 5690 5687 5685 5683 5681 5679 5677 5674 5671 5669 5668 5669 5669 5669 5668 5668 5669 5669 5669
5732 5730 5729 5729 5728 5725 5722 5721 5720 5718 5717 5714 5712 5710 5709 5707 5705 5703 5700 5698 5695 5692 5690 5688 5686 5684 5682 5679 5677 5674 5672 5669 5666 5664 5663 5662 5663 5661 5661 5662 5661 5662 5663
5732 5729 5728 5726 5724 5722 5720 5718 5716 5714 5713 5710 5709 5707 5705 5704 5703 5700 5697 5695 5691 5688 5685 5683 5681 5679 5677 5674 5672 5670 5667 5664 5661 5659 5658 5657 5657 5656 5655 5654 5653 5652 5655
5730 5728 5726 5723 5720 5718 5717 5714 5712 5710 5708 5706 5704 5702 5700 5699 5698 5695 5693 5689 5686 5683 5680 5677 5676 5675 5671 5668 5666 5664 5662 5660 5657 5655 5653 5652 5651 5651 5648 5647 5645 5645 5646
5727 5724 5722 5720 5717 5714 5712 5710 5707 5705 5703 5701 5699 5697 5695 5693 5691 5689 5685 5682 5679 5676 5674 5671 5668 5666 5664 5661 5659 5657 5655 5653 5651 5649 5648 5647 5646 5644 5640 5639 5638 5638 5639
5723 5721 5719 5717 5713 5710 5708 5706 5704 5701 5698 5696 5693 5692 5689 5687 5685 5681 5677 5674 5671 5669 5667 5664 5661 5659 5656 5653 5650 5649 5648 5646 5644 5642 5641 5639 5637 5635 5631 5628 5627 5627 5631
5718 5716 5715 5713 5710 5707 5705 5702 5699 5696 5693 5690 5688 5685 5682 5680 5678 5675 5670 5665 5662 5659 5657 5655 5653 5650 5648 5644 5641 5639 5637 5637 5634 5633 5631 5630 5628 5626 5623 5620 5619 5618 5621
5711 5708 5706 5705 5703 5701 5699 5697 5694 5690 5686 5683 5679 5676 5674 5671 5669 5666 5661 5657 5654 5651 5649 5647 5645 5641 5638 5635 5631 5630 5628 5626 5623 5621 5620 5620 5619 5617 5616 5613 5611 5609 5610
5703 5700 5697 5695 5694 5693 5690 5687 5684 5681 5677 5674 5669 5666 5664 5661 5658 5655 5651 5647 5645 5642 5640 5637 5634 5631 5627 5624 5621 5620 5618 5614 5612 5610 5609 5609 5608 5608 5607 5605 5603 5601 5601
5691 5688 5686 5684 5682 5680 5678 5675 5672 5669 5666 5663 5659 5655 5652 5649 5646 5643 5640 5637 5634 5630 5628 5625 5622 5619 5616 5613 5610 5608 5606 5603 5600 5599 5599 5598 5598 5598 5596 5595 5594 5592 5591
5679 5676 5674 5672 5669 5667 5665 5662 5659 5656 5653 5650 5647 5643 5640 5637 5634 5632 5629 5626 5622 5618 5615 5611 5608 5605 5602 5599 5597 5595 5592 5590 5588 5588 5587 5587 5586 5584 5583 5582 5581 5580 5580
5667 5665 5662 5660 5657 5654 5652 5649 5647 5644 5642 5639 5636 5632 5629 5626 5623 5620 5616 5613 5610 5606 5601 5597 5594 5591 5589 5587 5585 5583 5580 5578 5576 5575 5573 5573 5572 5571 5570 5568 5566 5565 5565
5654 5651 5649 5646 5644 5641 5639 5636 5633 5631 5629 5626 5623 5620 5617 5614 5610 5606 5602 5599 5594 5590 5586 5583 5581 5578 5577 5575 5573 5570 5568 5565 5564 5562 5560 5559 5558 5557 5557 5555 5552 5551 5551
5640 5637 5635 5633 5631 5628 5626 5624 5620 5618 5616 5613 5610 5607 5604 5600 5596 5592 5588 5584 5579 5575 5571 5569 5567 5565 5563 5560 5558 5556 5555 5553 5550 5548 5547 5546 5544 5543 5542 5541 5540 5538 5538
5627 5625 5623 5620 5617 5615 5613 5610 5607 5604 5602 5599 5596 5592 5589 5585 5581 5577 5573 5569 5565 5561 5558 5556 5554 5551 5549 5546 5544 5542 5540 5539 5536 5535 5533 5532 5531 5529 5529 5528 5527 5526 5525
5614 5612 5609 5606 5603 5601 5598 5596 5593 5590 5587 5585 5583 5580 5576 5572 5568 5564 5559 5555 5554 5551 5546 5542 5540 5538 5535 5532 5530 5528 5526 5525 5523 5521 5521 5520 5519 5517 5517 5516 5516 5514 5512
5600 5599 5596 5593 5591 5588 5585 5582 5579 5576 5573 5571 5568 5565 5562 5558 5555 5551 5546 5542 5539 5537 5534 5530 5527 5524 5522 5519 5517 5515 5513 5512 5512 5511 5510 5509 5509 5507 5507 5507 5506 5506 5506
5587 5585 5583 5580 5577 5574 5571 5568 5564 5561 5558 5555 5552 5549 5545 5543 5541 5537 5534 5530 5526 5524 5521 5517 5514 5511 5509 5507 5505 5504 5503 5503 5502 5502 5501 5500 5499 5499 5499 5498 5498 5498 5498
5574 5571 5569 5565 5562 5559 5556 5552 5549 5545 5542 5539 5537 5534 5530 5527 5525 5522 5519 5516 5513 5510 5507 5505 5502 5501 5499 5498 5497 5496 5496 5495 5495 5494 5493 5492 5492 5492 5491 5491 5491 5491 5491
5562 5559 5555 5552 5548 5544 5541 5537 5533 5529 5526 5523 5520 5517 5514 5511 5509 5506 5504 5502 5500 5498 5496 5494 5493 5492 5491 5490 5489 5488 5488 5488 5487 5485 5485 5486 5485 5485 5485 5485 5485 5486 5487
5548 5544 5541 5536 5532 5528 5524 5520 5516 5513 5510 5507 5504 5501 5498 5496 5494 5492 5490 5489 5487 5486 5485 5484 5483 5483 5482 5481 5481 5481 5480 5480 5479 5478 5478 5478 5479 5479 5479 5480 5481 5482 5483
5532 5528 5524 5519 5515 5511 5507 5503 5500 5496 5493 5491 5488 5486 5484 5482 5480 5478 5477 5475 5475 5474 5474 5474 5474 5475 5475 5475 5475 5475 5475 5474 5473 5472 5473 5473 5474 5475 5476 5477 5478 5479 5480
5515 5511 5506 5502 5497 5493 5490 5486 5484 5481 5478 5476 5473 5472 5470 5469 5467 5466 5465 5464 5464 5464 5465 5466 5467 5467 5468 5469 5470 5470 5470 5471 5470 5470 5469 5471 5472 5473 5474 5475 5476 5477 5479